AirNav   Air Wisconsin pilot careers
 
 447 users online  

01K Caldwell Municipal Airport
Caldwell, Kansas, USA

GOING TO CALDWELL?


FAA INFORMATION EFFECTIVE 21 JUNE 2018

Location

FAA Identifier: 01K
Lat/Long: 37-02-11.8000N / 097-35-08.0000W
37-02.196667N / 097-35.133333W
37.0366111 / -97.5855556
(estimated)
Elevation: 1157 ft. / 352.7 m (surveyed)
Variation: 07E (1985)
From city: 1 mile E of CALDWELL, KS
Time zone: UTC -5 (UTC -6 during Standard Time)
Zip code: 67022

Airport Operations

Airport use: Open to the public
Activation date: 12/1945
Control tower: no
ARTCC: KANSAS CITY CENTER
FSS: WICHITA FLIGHT SERVICE STATION
NOTAMs facility: ICT (NOTAM-D service available)
Attendance: UNATNDD
Wind indicator: lighted
Segmented circle: no
Landing fee: no, LNDG FEE FOR COMMERCIAL USERS ONLY.

Airport Communications

CTAF: 122.9
WX AWOS-3 at EGT (20 nm NE): 118.875 (620-326-2470)

Nearby radio navigation aids

VOR radial/distance  VOR name  Freq  Var
PERr304/26.8PIONEER VORTAC113.2006E
ANYr098/29.0ANTHONY VORTAC112.9007E

Airport Services

Parking: tiedowns
Airframe service: NONE
Powerplant service: NONE
Bottled oxygen: NONE
Bulk oxygen: NONE

Runway Information

Runway 17/35

Dimensions: 2460 x 110 ft. / 750 x 34 m
Surface: turf, in good condition
RUNWAY 17  RUNWAY 35
Latitude: 37-02.400143N37-01.994667N
Longitude: 097-35.131850W097-35.134923W
Elevation: 1157.0 ft.1135.0 ft.
Traffic pattern: leftleft
Runway heading: 173 magnetic, 180 true353 magnetic, 000 true
Obstructions: 13 ft. road, 40 ft. from runway, 3:1 slope to clear
COUNTRY ROAD - TRAFFIC DURING HARVEST.
15 ft. road, 180 ft. from runway, 12:1 slope to clear
PLINE & HIGHWAY - PLINE SUPPORT 1/8 MILE SOUTH OF ROAD.

Airport Ownership and Management from official FAA records

Ownership: Publicly-owned
Owner: CITY OF CALDWELL
14 W. CENTRAL
CALDWELL, KS 67022
Phone 620-845-6514
Manager: MARC MARCRUM
14 W. CENTRAL
CALDWELL, KS 67022
Phone 620-845-6676

Airport Operational Statistics

Aircraft based on the field: 1
Single engine airplanes: 1
    
Aircraft operations: avg 75/month *
56% local general aviation
44% transient general aviation
* for 12-month period ending 03 September 2015

Additional Remarks

RY 17 HAS A 3 FT DITCH OFF END OF RY.
18"X 140' METAL CULVERT IN DITCH WEST EDGE OF R/W ON TAXIWAY

Instrument Procedures

There are no published instrument procedures at 01K.

Some nearby airports with instrument procedures:

O53 - Medford Municipal Airport (17 nm SW)
KEGT - Wellington Municipal Airport (20 nm NE)
KBKN - Blackwell-Tonkawa Municipal Airport (21 nm SE)
KANY - Anthony Municipal Airport (25 nm W)
8K2 - Harper Municipal Airport (26 nm NW)
 
Loc | Ops | Rwys | IFR | FBO | Links
Com | Nav | Svcs | Stats | Notes

Kansas City Aviation Department
 
Area around 01K (Caldwell Municipal Airport)
 
Road maps at: MapQuest Bing Google
 
Aerial photo
WARNING: Photo may not be current or correct
Aerial photo of 01K (Caldwell Municipal Airport)
Photo by Von Rothenberger
Photo taken 03-Sep-2010

Do you have a better or more recent aerial photo of Caldwell Municipal Airport that you would like to share? If so, please send us your photo.

 
Sectional chart

 
Airport distance calculator
Flying to Caldwell Municipal Airport? Find the distance to fly.

From to 01K

Sunrise and sunset
Times for 18-Jul-2018
 Local
(UTC-5)
 Zulu
(UTC)
Morning civil twilight05:5610:56
Sunrise06:2611:26
Sunset20:4801:48
Evening civil twilight21:1702:17

Current date and time
Zulu (UTC)  18-Jul-2018 05:55:52
Local (UTC-5)  18-Jul-2018 00:55:52
 
METAR
8K2 
26nm NW 
SuperAWOS
180455Z AUTO 00000KT 10SM 23/22 A3008
KWLD 
28nm E 
180454Z AUTO 10007KT 10SM CLR 24/22 A3002 RMK AO2 SLP155 T02390222
KPNC 
30nm SE 
180453Z AUTO 09010KT 10SM CLR 26/21 A2999 RMK AO2 SLP141 T02560211
KICT 
38nm N 
180453Z 12008KT 10SM FEW030 SCT150 SCT250 26/23 A3002 RMK AO2 SLP150 T02560228
KIAB 
38nm NE 
180456Z AUTO 12006KT 10SM FEW130 24/22 A3002 RMK AO2 SLP156 T02420215
KWDG 
41nm S 
180535Z AUTO 34012KT VCTS SCT019 BKN037 OVC050 24/21 A3004 RMK AO2 LTG DSNT NW THRU NE
TAF
KPNC 
30nm SE 
180228Z 1802/1824 08009KT P6SM BKN250 FM180700 09010KT P6SM VCTS SCT100CB OVC250 TEMPO 1808/1811 VRB25G35KT 4SM TSRA OVC050CB FM181200 15009KT P6SM SCT120 BKN250
NOTAMs
Click for the latest NOTAMs
NOTAMs are issued by the DoD/FAA and will open in a separate window not controlled by AirNav.

 

 
 

Would you like to see your business listed on this page?

 If your business provides an interesting product or service to pilots, flight crews, aircraft, or users of the Caldwell Municipal Airport, you should consider listing it here.  To start the listing process, click on the button below
 
Add a business
 

Other Pages about Caldwell Municipal Airport

Update a link
 
Copyright © AirNav, LLC. All rights reserved. Privacy Policy  Contact